"2009-10-29 00:00:00",1368286,14.1,34.85,4.198,1.035,3.54,98.09021,-5.565,-4.287,96,0,109.2,13.74,-4.83,356.9
"2009-10-29 00:00:30",1368287,14.69,35.72,3.916,1.104,3.617,98.08231,-5.585,-4.289,96,0,109.2,13.74,-4.85,357.7
"2009-10-29 00:01:00",1368288,14.49,35.63,3.616,0.722,3.476,98.08115,-5.588,-4.288,96,0,109.2,13.74,-4.86,357.6
"2009-10-29 00:01:30",1368289,13.91,36.36,3.35,0.875,3.503,98.0817,-5.586,-4.302,96,0,109.2,13.74,-4.85,358.4
"2009-10-29 00:02:00",1368290,14.02,36.67,3.993,0.714,3.604,98.07947,-5.592,-4.324,96,0,109.2,13.74,-4.86,358.7
"2009-10-29 00:02:30",1368291,13.64,34.27,3.959,0.921,3.327,98.0791,-5.593,-4.332,96,0,109.2,13.74,-4.86,356.3
"2009-10-29 00:03:00",1368292,13.59,34.02,4.874,1.082,3.44,98.06692,-5.624,-4.342,95.9,0,109.2,13.74,-4.89,356.0
"2009-10-29 00:03:30",1368293,13.78,34.68,4.154,0.995,3.506,98.06548,-5.628,-4.353,95.9,0,109.2,13.74,-4.90,356.7
"2009-10-29 00:04:00",1368294,13.59,35.73,4.112,0.82,3.518,98.06063,-5.64,-4.345,95.9,0,109.2,13.74,-4.91,357.7
"2009-10-29 00:04:30",1368295,13.32,36.47,3.84,0.836,3.495,98.05725,-5.649,-4.359,96,0,109.2,13.74,-4.92,358.5
"2009-10-29 00:05:00",1368296,13.67,36.5,4.44,0.845,3.48,98.05132,-5.664,-4.389,95.9,0,109.2,13.74,-4.93,358.5
"2009-10-29 00:05:30",1368297,14.63,37.04,4.71,1.28,3.757,98.05128,-5.664,-4.387,95.9,0,109.2,13.74,-4.93,359.0
"2009-10-29 00:06:00",1368298,13.93,34.56,3.445,1.106,3.434,98.05212,-5.662,-4.379,95.9,0,109.2,13.74,-4.93,356.6
"2009-10-29 00:06:30",1368299,12.81,34.98,3.715,1.135,3.41,98.05239,-5.661,-4.387,95.9,0,109.2,13.74,-4.93,357.0
"2009-10-29 00:07:00",1368300,13.45,35.55,4.185,1.723,3.275,98.05183,-5.662,-4.405,96,0,109.2,13.74,-4.93,357.5
"2009-10-29 00:07:30",1368301,13.54,35.42,4.172,0.968,3.35,98.05212,-5.662,-4.402,95.9,0,109.2,13.74,-4.93,357.4
"2009-10-29 00:08:00",1368302,14.49,34.61,5.561,0.788,3.622,98.05212,-5.662,-4.407,96,0,109.2,13.74,-4.93,356.6
"2009-10-29 00:08:30",1368303,14.05,36.21,4.76,0.979,3.476,98.05155,-5.663,-4.404,96,0,109.2,13.74,-4.93,358.2
"2009-10-29 00:09:00",1368304,14.21,35.59,4.463,0.832,3.461,98.05266,-5.66,-4.408,96,0,109.2,13.74,-4.93,357.6
"2009-10-29 00:09:30",1368305,14.76,35.37,4.261,0.95,3.552,98.03764,-5.699,-4.423,96,0,109.2,13.74,-4.97,357.4
"2009-10-29 00:10:00",1368306,14.34,33.78,3.73,0.81,3.403,98.02771,-5.724,-4.437,96,0,109.2,13.74,-4.99,355.8
"2009-10-29 00:10:30",1368307,13.82,35.15,4.022,0.644,3.437,98.02402,-5.733,-4.434,96,0,109.2,13.74,-5.00,357.1
"2009-10-29 00:11:00",1368308,13.61,34.41,3.894,0.804,3.448,98.02035,-5.743,-4.426,96,0,109.2,13.74,-5.01,356.4
"2009-10-29 00:11:30",1368309,14.03,33.87,4.605,0.933,3.335,98.01807,-5.748,-4.454,96,0,109.2,13.74,-5.02,355.9
"2009-10-29 00:12:00",1368310,13.97,32.96,4.607,0.766,3.447,98.01946,-5.745,-4.45,96,0,109.2,13.74,-5.01,355.0
"2009-10-29 00:12:30",1368311,14.47,33.31,3.713,0.947,3.275,98.01919,-5.745,-4.455,96,0,109.2,13.74,-5.01,355.3
"2009-10-29 00:13:00",1368312,14.33,34.4,4.389,0.904,3.458,98.01891,-5.746,-4.477,96,0,109.2,13.74,-5.01,356.4
"2009-10-29 00:13:30",1368313,14.43,33.8,4.278,0.528,3.757,98.0178,-5.749,-4.458,96,0,109.2,13.74,-5.02,355.8
"2009-10-29 00:14:00",1368314,14.73,34.06,4.427,0.765,3.379,98.01864,-5.747,-4.466,96,0,109.2,13.74,-5.02,356.1
"2009-10-29 00:14:30",1368315,13.9,34.5,4.539,1.124,3.411,98.01891,-5.746,-4.457,96,0,109.2,13.75,-5.01,356.5
"2009-10-29 00:15:00",1368316,13.98,29.69,5.585,1.896,3.445,98.01946,-5.745,-4.469,96,0,109.2,13.74,-5.01,351.7
"2009-10-29 00:15:30",1368317,14.7,32.68,4.325,1.496,3.391,98.01946,-5.745,-4.494,96,0,109.2,13.74,-5.01,354.7
"2009-10-29 00:16:00",1368318,14.45,35.09,4.358,0.715,3.667,98.01891,-5.746,-4.464,96,0,109.1,13.74,-5.01,357.1
"2009-10-29 00:16:30",1368319,14.47,33.92,4.866,1.31,3.475,98.01807,-5.748,-4.48,96,0,109.2,13.74,-5.02,355.9
"2009-10-29 00:17:00",1368320,14.3,35.23,2.989,0.872,3.358,98.0178,-5.749,-4.468,96,0,109.2,13.74,-5.02,357.2
"2009-10-29 00:17:30",1368321,13.33,32.74,7.451,1.72,3.592,98.01836,-5.748,-4.482,96,0,109.2,13.74,-5.02,354.7
"2009-10-29 00:18:00",1368322,12.11,32.17,6.12,1.642,3.354,98.01891,-5.746,-4.466,96,0,109.2,13.74,-5.01,354.2
"2009-10-29 00:18:30",1368323,13.35,34.66,3.866,0.921,3.456,98.01836,-5.748,-4.483,96,0,109.2,13.74,-5.02,356.7
"2009-10-29 00:19:00",1368324,13.59,30.65,5.873,1.32,3.461,98.01864,-5.747,-4.442,96,0,109.2,13.74,-5.02,352.6
"2009-10-29 00:19:30",1368325,14.23,34.7,4.192,0.886,3.503,98.01836,-5.748,-4.469,96.1,0,109.2,13.74,-5.02,356.7
"2009-10-29 00:20:00",1368326,14.78,33.2,3.554,0.883,3.415,98.01892,-5.746,-4.48,96.1,0,109.2,13.74,-5.01,355.2
"2009-10-29 00:20:30",1368327,13.63,32.77,5.33,0.695,3.499,98.02034,-5.743,-4.461,96.1,0,109.2,13.74,-5.01,354.8
"2009-10-29 00:21:00",1368328,13.92,35.58,5.814,1.303,3.532,98.02232,-5.738,-4.454,96.1,0,109.2,13.74,-5.01,357.6
"2009-10-29 00:21:30",1368329,13.65,31.99,6.162,1.458,3.671,98.0212,-5.74,-4.463,96.1,0,109.2,13.74,-5.01,354.0
"2009-10-29 00:22:00",1368330,14,34.63,4.335,0.943,3.544,98.02062,-5.742,-4.426,96.1,0,109.2,13.75,-5.01,356.6
"2009-10-29 00:22:30",1368331,14.12,32,3.901,0.966,3.583,98.02175,-5.739,-4.443,96.1,0,109.2,13.75,-5.01,354.0
"2009-10-29 00:23:00",1368332,14.05,33.91,4.395,1.153,3.45,98.02318,-5.735,-4.457,96.1,0,109.2,13.75,-5.00,355.9
"2009-10-29 00:23:30",1368333,13.81,32.01,3.958,1.092,3.388,98.02458,-5.732,-4.467,96.1,0,109.2,13.75,-5.00,354.0
"2009-10-29 00:24:00",1368334,14.15,33.43,4.178,0.823,3.715,98.02261,-5.737,-4.45,96.1,0,109.2,13.75,-5.00,355.4
"2009-10-29 00:24:30",1368335,14.27,34.9,3.239,1.26,3.388,98.02431,-5.732,-4.439,96.1,0,109.2,13.75,-5.00,356.9
"2009-10-29 00:25:00",1368336,14.22,31.59,4.255,2.249,3.599,98.0229,-5.736,-4.446,96.1,0,109.2,13.75,-5.00,353.6
"2009-10-29 00:25:30",1368337,13.4,32.12,4.983,0.893,3.503,98.02573,-5.729,-4.455,96.1,0,109.2,13.75,-5.00,354.1
"2009-10-29 00:26:00",1368338,13.33,35.99,4.406,1.099,3.444,98.02516,-5.73,-4.452,96.1,0,109.2,13.75,-5.00,358.0
"2009-10-29 00:26:30",1368339,14.42,33.5,6.357,1.76,3.429,98.02715,-5.725,-4.441,96.1,0,109.2,13.75,-4.99,355.5
"2009-10-29 00:27:00",1368340,14.2,33.94,5.073,1.102,3.43,98.02829,-5.722,-4.44,96.1,0,109.2,13.75,-4.99,355.9
"2009-10-29 00:27:30",1368341,14.49,33.53,5.055,1.012,3.466,98.02656,-5.727,-4.44,96.1,0,109.2,13.75,-4.99,355.5
"2009-10-29 00:28:00",1368342,14.7,35.81,3.822,1.228,3.43,98.02739,-5.725,-4.451,96.1,0,109.2,13.75,-4.99,357.8
"2009-10-29 00:28:30",1368343,13.66,35.51,4.339,0.988,3.482,98.02429,-5.732,-4.444,96.2,0,109.2,13.75,-5.00,357.5
"2009-10-29 00:29:00",1368344,12.67,31.01,7.002,1.697,3.48,98.02458,-5.732,-4.43,96.1,0,109.2,13.75,-5.00,353.0
"2009-10-29 00:29:30",1368345,14.07,33.68,4.638,1.556,3.567,98.02657,-5.727,-4.434,96.1,0,109.2,13.75,-4.99,355.7
"2009-10-29 00:30:00",1368346,14.37,33.25,3.18,1.175,3.423,98.02853,-5.722,-4.439,96.2,0,109.2,13.75,-4.99,355.2
"2009-10-29 00:30:30",1368347,13.29,34.93,4.424,1.037,3.241,98.02744,-5.724,-4.442,96.2,0,109.2,13.75,-4.99,356.9
"2009-10-29 00:31:00",1368348,14.69,35.21,4.719,1.715,3.619,98.02996,-5.718,-4.43,96.2,0,109.2,13.75,-4.99,357.2
"2009-10-29 00:31:30",1368349,13.78,35.39,4.684,1.985,3.554,98.02882,-5.721,-4.438,96.2,0,109.2,13.75,-4.99,357.4
"2009-10-29 00:32:00",1368350,13.7,33.99,4.633,1.091,3.412,98.03275,-5.711,-4.446,96.2,0,109.2,13.75,-4.98,356.0
"2009-10-29 00:32:30",1368351,13.74,33.93,4.009,1.206,3.44,98.03391,-5.708,-4.439,96.2,0,109.2,13.74,-4.98,355.9
"2009-10-29 00:33:00",1368352,14.94,36.29,3.438,2.059,3.479,98.03333,-5.709,-4.429,96.2,0,109.2,13.74,-4.98,358.3
"2009-10-29 00:33:30",1368353,14.38,34.1,3.484,1.537,3.465,98.03191,-5.713,-4.456,96.2,0,109.2,13.74,-4.98,356.1
"2009-10-29 00:34:00",1368354,13.33,32.45,4.763,1.084,3.423,98.03191,-5.713,-4.434,96.2,0,109.2,13.74,-4.98,354.5
"2009-10-29 00:34:30",1368355,13.69,35.35,3.965,1.325,3.282,98.03329,-5.71,-4.43,96.2,0,109.2,13.74,-4.98,357.4
"2009-10-29 00:35:00",1368356,13.94,33.32,5.088,1.013,3.404,98.03529,-5.704,-4.431,96.2,0,109.2,13.74,-4.97,355.3
"2009-10-29 00:35:30",1368357,13.54,34.45,4.469,0.92,3.248,98.0353,-5.704,-4.463,96.2,0,109.2,13.74,-4.97,356.5
"2009-10-29 00:36:00",1368358,14.04,35.18,4.329,0.991,3.572,98.0387,-5.696,-4.434,96.2,0,109.2,13.74,-4.96,357.2
"2009-10-29 00:36:30",1368359,14.26,34.54,2.702,0.716,3.235,98.03472,-5.706,-4.437,96.2,0,109.2,13.74,-4.97,356.5
"2009-10-29 00:37:00",1368360,14.7,34.38,4.96,1.292,3.353,98.03443,-5.707,-4.426,96.2,0,109.2,13.74,-4.97,356.4
"2009-10-29 00:37:30",1368361,13.71,32.12,4.452,1.297,3.454,98.03472,-5.706,-4.44,96.2,0,109.2,13.75,-4.97,354.1
"2009-10-29 00:38:00",1368362,13.16,31.75,3.307,1.025,3.313,98.03529,-5.705,-4.451,96.2,0,109.2,13.75,-4.97,353.8
"2009-10-29 00:38:30",1368363,13.95,33.92,5.071,1.133,3.514,98.03785,-5.698,-4.427,96.2,0,109.2,13.75,-4.97,355.9
"2009-10-29 00:39:00",1368364,12.79,29.45,4.55,1.19,3.339,98.03846,-5.696,-4.43,96.2,0,109.2,13.75,-4.96,351.5
"2009-10-29 00:39:30",1368365,13.54,33.74,4.371,0.971,3.357,98.04382,-5.683,-4.434,96.2,0,109.2,13.75,-4.95,355.7
"2009-10-29 00:40:00",1368366,12.38,31.1,4.915,1.34,3.396,98.04862,-5.671,-4.45,96.2,0,109.2,13.75,-4.94,353.1
"2009-10-29 00:40:30",1368367,13.5,29.96,4.84,1.572,3.437,98.05373,-5.658,-4.42,96.2,0,109.2,13.75,-4.93,352.0
"2009-10-29 00:41:00",1368368,13.14,33.17,3.761,0.947,3.341,98.05544,-5.653,-4.417,96.2,0,109.2,13.75,-4.92,355.2
"2009-10-29 00:41:30",1368369,12.84,32.14,4.4,0.828,3.415,98.05685,-5.65,-4.417,96.2,0,109.2,13.75,-4.92,354.1
"2009-10-29 00:42:00",1368370,13.13,32.82,4.151,1.15,3.3,98.05879,-5.645,-4.421,96.3,0,109.2,13.75,-4.91,354.8
"2009-10-29 00:42:30",1368371,14.01,34.31,4.337,1.765,3.215,98.05824,-5.646,-4.405,96.3,0,109.2,13.76,-4.91,356.3
"2009-10-29 00:43:00",1368372,12.6,30.4,4.52,1.556,3.34,98.05879,-5.645,-4.418,96.3,0,109.2,13.75,-4.91,352.4
"2009-10-29 00:43:30",1368373,12,34.26,4.912,1.269,3.37,98.05767,-5.648,-4.406,96.2,0,109.2,13.76,-4.92,356.3
"2009-10-29 00:44:00",1368374,13.13,33.26,4.827,1.019,3.384,98.05767,-5.648,-4.399,96.3,0,109.2,13.76,-4.92,355.3
"2009-10-29 00:44:30",1368375,13.47,32.85,4.128,1.082,3.218,98.05851,-5.645,-4.4,96.3,0,109.2,13.76,-4.91,354.9
"2009-10-29 00:45:00",1368376,13.03,33.08,3.594,1.274,3.284,98.05824,-5.646,-4.387,96.3,0,109.2,13.76,-4.91,355.1
"2009-10-29 00:45:30",1368377,14.49,32.35,3.235,1.339,3.238,98.05795,-5.647,-4.415,96.3,0,109.2,13.75,-4.91,354.4
"2009-10-29 00:46:00",1368378,13.06,29.86,4.582,1.563,3.438,98.05628,-5.651,-4.413,96.3,0,109.2,13.76,-4.92,351.9
"2009-10-29 00:46:30",1368379,12.5,31.81,6.048,1.895,3.258,98.05573,-5.652,-4.39,96.3,0,109.2,13.76,-4.92,353.8
"2009-10-29 00:47:00",1368380,12.03,32.18,3.689,1.243,3.289,98.05851,-5.645,-4.401,96.3,0,109.2,13.76,-4.91,354.2
"2009-10-29 00:47:30",1368381,13.8,32.92,4.028,1.074,3.34,98.05795,-5.647,-4.406,96.3,0,109.2,13.76,-4.91,354.9
"2009-10-29 00:48:00",1368382,13.59,33.79,3.571,1.147,3.275,98.05795,-5.647,-4.395,96.3,0,109.2,13.76,-4.91,355.8
"2009-10-29 00:48:30",1368383,14.33,36.01,4.175,1.493,3.244,98.0574,-5.648,-4.405,96.3,0,109.2,13.76,-4.92,358.0
"2009-10-29 00:49:00",1368384,12.55,32.23,3.456,1.047,3.283,98.05795,-5.647,-4.392,96.3,0,109.2,13.75,-4.91,354.2
"2009-10-29 00:49:30",1368385,15.02,35.23,5.309,1.47,3.323,98.05824,-5.646,-4.419,96.3,0,109.2,13.75,-4.91,357.2
"2009-10-29 00:50:00",1368386,13.35,32.92,5.586,2.009,3.517,98.05934,-5.643,-4.411,96.3,0,109.2,13.75,-4.91,354.9
"2009-10-29 00:50:30",1368387,12.16,30.76,4.562,1.619,3.34,98.05767,-5.648,-4.399,96.3,0,109.2,13.74,-4.92,352.8
"2009-10-29 00:51:00",1368388,14.66,35.06,3.537,1.078,3.441,98.05851,-5.645,-4.378,96.3,0,109.2,13.74,-4.91,357.1
"2009-10-29 00:51:30",1368389,14.65,36.26,4.107,1.002,3.328,98.05934,-5.643,-4.411,96.3,0,109.2,13.75,-4.91,358.3
"2009-10-29 00:52:00",1368390,13.25,30.98,5.698,2.277,3.448,98.05795,-5.647,-4.403,96.3,0,109.2,13.74,-4.91,353.0
"2009-10-29 00:52:30",1368391,14.02,34.31,4.454,1.116,3.483,98.05824,-5.646,-4.408,96.3,0,109.2,13.75,-4.91,356.3
"2009-10-29 00:53:00",1368392,14.59,31.47,5.601,1.252,3.349,98.0574,-5.648,-4.401,96.3,0,109.2,13.74,-4.92,353.5
"2009-10-29 00:53:30",1368393,13.67,34.38,4.174,1.182,3.525,98.05851,-5.645,-4.409,96.3,0,109.2,13.75,-4.91,356.4
"2009-10-29 00:54:00",1368394,12.47,31.53,4.67,1.474,3.578,98.05767,-5.648,-4.401,96.3,0,109.2,13.75,-4.92,353.5
"2009-10-29 00:54:30",1368395,13.71,33.77,3.487,1.403,3.408,98.05879,-5.645,-4.406,96.3,0,109.2,13.75,-4.91,355.8
"2009-10-29 00:55:00",1368396,13.94,34.99,3.307,0.948,3.395,98.05907,-5.644,-4.407,96.3,0,109.2,13.75,-4.91,357.0
"2009-10-29 00:55:30",1368397,14.26,35.3,3.551,1.005,3.405,98.05851,-5.645,-4.42,96.3,0,109.2,13.76,-4.91,357.3
"2009-10-29 00:56:00",1368398,14.15,32.84,3.526,1.088,3.537,98.0585,-5.645,-4.408,96.3,0,109.2,13.76,-4.91,354.8
"2009-10-29 00:56:30",1368399,14.91,35.08,2.826,0.921,3.486,98.05934,-5.643,-4.423,96.3,0,109.2,13.76,-4.91,357.1
"2009-10-29 00:57:00",1368400,14.65,36.11,3.124,0.999,3.453,98.05794,-5.647,-4.399,96.3,0,109.2,13.76,-4.91,358.1
"2009-10-29 00:57:30",1368401,14.52,32.92,4.151,1.074,3.385,98.05537,-5.653,-4.416,96.3,0,109.2,13.76,-4.92,354.9
"2009-10-29 00:58:00",1368402,14.41,34.83,3.037,0.921,3.611,98.0463,-5.676,-4.428,96.3,0,109.2,13.76,-4.94,356.8
"2009-10-29 00:58:30",1368403,13.94,34.25,3.364,1.098,3.491,98.04063,-5.691,-4.433,96.3,0,109.2,13.76,-4.96,356.2
"2009-10-29 00:59:00",1368404,14.41,34.23,3.433,1.281,3.437,98.03835,-5.697,-4.424,96.3,0,109.2,13.76,-4.96,356.2
"2009-10-29 00:59:30",1368405,13.47,33.25,5.548,1.096,3.606,98.03779,-5.698,-4.44,96.3,0,109.2,13.76,-4.97,355.2
"2009-10-29 01:00:00",1368406,14.72,33.56,4.178,1.08,3.796,98.03551,-5.704,-4.422,96.3,0,109.2,13.76,-4.97,355.6
"2009-10-29 01:00:30",1368407,14.78,33.86,4.991,1.153,3.529,98.03608,-5.702,-4.425,96.3,0,109.2,13.76,-4.97,355.9
"2009-10-29 01:01:00",1368408,13.73,32.66,5.065,1.438,3.498,98.03552,-5.704,-4.424,96.3,0,109.2,13.76,-4.97,354.7
"2009-10-29 01:01:30",1368409,13.9,34.74,3.813,1.151,3.528,98.03863,-5.696,-4.439,96.3,0,109.2,13.76,-4.96,356.7
"2009-10-29 01:02:00",1368410,14.24,34.68,4.415,1.21,3.501,98.04118,-5.689,-4.452,96.3,0,109.2,13.76,-4.96,356.7
"2009-10-29 01:02:30",1368411,13.22,32.38,4.384,0.83,3.416,98.04063,-5.691,-4.43,96.3,0,109.2,13.76,-4.96,354.4
"2009-10-29 01:03:00",1368412,12.45,30.92,4.525,1.568,3.305,98.0409,-5.69,-4.418,96.3,0,109.2,13.76,-4.96,352.9
"2009-10-29 01:03:30",1368413,11.63,32.36,5.193,1.682,3.309,98.04516,-5.679,-4.439,96.3,0,109.2,13.76,-4.95,354.4
"2009-10-29 01:04:00",1368414,13.96,33.27,3.861,1.162,3.475,98.04913,-5.669,-4.436,96.3,0,109.2,13.76,-4.94,355.3
"2009-10-29 01:04:30",1368415,13.32,34.4,4.054,1.028,3.438,98.05309,-5.659,-4.439,96.3,0,109.2,13.76,-4.93,356.4
"2009-10-29 01:05:00",1368416,13.77,33.05,3.201,0.971,3.339,98.0548,-5.655,-4.416,96.3,0,109.2,13.75,-4.92,355.0
"2009-10-29 01:05:30",1368417,13.5,32.25,3.186,1.014,3.419,98.05309,-5.659,-4.434,96.3,0,109.2,13.75,-4.93,354.2
"2009-10-29 01:06:00",1368418,13.53,33.39,2.754,0.919,3.494,98.05083,-5.665,-4.426,96.3,0,109.2,13.75,-4.93,355.4
"2009-10-29 01:06:30",1368419,13.15,30.93,3.358,1.261,3.407,98.04744,-5.674,-4.413,96.3,0,109.2,13.75,-4.94,352.9
"2009-10-29 01:07:00",1368420,13.17,33.23,4.821,1.286,3.339,98.04543,-5.679,-4.429,96.3,0,109.2,13.75,-4.95,355.2
"2009-10-29 01:07:30",1368421,13.21,31.99,4.184,0.841,3.386,98.04744,-5.674,-4.438,96.3,0,109.2,13.75,-4.94,354.0
"2009-10-29 01:08:00",1368422,13.17,31.3,3.228,1.235,3.514,98.04856,-5.671,-4.434,96.3,0,109.2,13.75,-4.94,353.3
"2009-10-29 01:08:30",1368423,13.3,32.21,4.328,0.871,3.376,98.05282,-5.66,-4.418,96.3,0,109.2,13.75,-4.93,354.2
"2009-10-29 01:09:00",1368424,13.65,32.6,3.652,0.809,3.44,98.05309,-5.659,-4.425,96.3,0,109.2,13.75,-4.93,354.6
"2009-10-29 01:09:30",1368425,13.31,32.51,3.978,0.798,3.383,98.04715,-5.674,-4.426,96.3,0,109.2,13.75,-4.94,354.5
"2009-10-29 01:10:00",1368426,13.59,31.32,3.234,0.656,3.582,98.04969,-5.668,-4.415,96.3,0,109.2,13.75,-4.94,353.3
"2009-10-29 01:10:30",1368427,13.36,31.86,3.621,0.934,3.442,98.04969,-5.668,-4.429,96.3,0,109.2,13.75,-4.94,353.9
"2009-10-29 01:11:00",1368428,13.13,32.21,3.25,0.697,3.454,98.04941,-5.669,-4.409,96.3,0,109.2,13.76,-4.94,354.2
"2009-10-29 01:11:30",1368429,13.01,30.06,4.193,0.888,3.397,98.0514,-5.663,-4.435,96.3,0,109.2,13.76,-4.93,352.1
"2009-10-29 01:12:00",1368430,12.85,30.25,3.949,1.6,3.615,98.05054,-5.666,-4.428,96.3,0,109.2,13.76,-4.93,352.2
"2009-10-29 01:12:30",1368431,13.71,33.03,2.978,0.764,3.436,98.0514,-5.663,-4.428,96.3,0,109.2,13.76,-4.93,355.0
"2009-10-29 01:13:00",1368432,12.64,29.83,3.739,1.352,3.41,98.05253,-5.661,-4.414,96.3,0,109.2,13.76,-4.93,351.8
"2009-10-29 01:13:30",1368433,13.05,31.05,4.429,1.228,3.377,98.05141,-5.663,-4.42,96.3,0,109.2,13.76,-4.93,353.0
"2009-10-29 01:14:00",1368434,13.68,31.32,3.405,0.573,3.595,98.05453,-5.656,-4.424,96.3,0,109.2,13.76,-4.92,353.3
"2009-10-29 01:14:30",1368435,14.16,31.37,4.072,0.513,3.412,98.05452,-5.656,-4.415,96.3,0,109.2,13.76,-4.92,353.4
"2009-10-29 01:15:00",1368436,13.47,32.13,4.338,0.564,3.615,98.05508,-5.654,-4.399,96.3,0,109.2,13.76,-4.92,354.1
"2009-10-29 01:15:30",1368437,13.09,30.77,2.978,1.052,3.353,98.05508,-5.654,-4.417,96.3,0,109.2,13.76,-4.92,352.8
"2009-10-29 01:16:00",1368438,13.88,34.65,2.622,0.876,3.53,98.05622,-5.651,-4.424,96.3,0,109.2,13.76,-4.92,356.6
"2009-10-29 01:16:30",1368439,12.67,30.63,4.063,1.187,3.281,98.05905,-5.644,-4.422,96.3,0,109.2,13.76,-4.91,352.6
"2009-10-29 01:17:00",1368440,12.43,32.42,6.148,2.07,3.331,98.05907,-5.644,-4.378,96.3,0,109.2,13.76,-4.91,354.4
"2009-10-29 01:17:30",1368441,13.13,31.87,4.097,0.994,3.247,98.05962,-5.643,-4.411,96.3,0,109.2,13.76,-4.91,353.9
"2009-10-29 01:18:00",1368442,13.15,32.43,4.477,1.18,3.59,98.05991,-5.642,-4.384,96.3,0,109.2,13.76,-4.91,354.4
"2009-10-29 01:18:30",1368443,13.12,30.28,3.63,0.906,3.406,98.05991,-5.642,-4.409,96.3,0,109.2,13.76,-4.91,352.3
"2009-10-29 01:19:00",1368444,13.7,31.12,4.948,0.769,3.523,98.05962,-5.643,-4.398,96.3,0,109.2,13.76,-4.91,353.1
"2009-10-29 01:19:30",1368445,13.78,29.73,3.414,1.637,3.467,98.05991,-5.642,-4.406,96.3,0,109.2,13.76,-4.91,351.7
"2009-10-29 01:20:00",1368446,14.46,34.2,2.918,1.031,3.521,98.05991,-5.642,-4.399,96.3,0,109.2,13.76,-4.91,356.2
"2009-10-29 01:20:30",1368447,13.66,32.95,3.459,0.717,3.537,98.05991,-5.642,-4.389,96.3,0,109.2,13.76,-4.91,355.0
"2009-10-29 01:21:00",1368448,13.39,34.28,3.212,0.967,3.407,98.05991,-5.642,-4.398,96.3,0,109.2,13.76,-4.91,356.3
"2009-10-29 01:21:30",1368449,14.31,34.54,4.949,0.99,3.487,98.05991,-5.642,-4.396,96.3,0,109.2,13.76,-4.91,356.5
"2009-10-29 01:22:00",1368450,12.47,33.31,3.528,1.087,3.529,98.05991,-5.642,-4.397,96.3,0,109.2,13.76,-4.91,355.3
"2009-10-29 01:22:30",1368451,13.35,33.84,3.783,0.835,3.543,98.05991,-5.642,-4.393,96.3,0,109.2,13.76,-4.91,355.8
"2009-10-29 01:23:00",1368452,13.58,33.23,4.066,0.822,3.492,98.05991,-5.642,-4.385,96.3,0,109.2,13.76,-4.91,355.2
"2009-10-29 01:23:30",1368453,13.85,34.01,3.653,0.605,3.748,98.05991,-5.642,-4.39,96.3,0,109.2,13.76,-4.91,356.0
"2009-10-29 01:24:00",1368454,13.64,31.02,3.107,0.839,3.742,98.05991,-5.642,-4.394,96.3,0,109.2,13.76,-4.91,353.0
"2009-10-29 01:24:30",1368455,13.29,33.91,4.29,1.184,3.59,98.05991,-5.642,-4.404,96.3,0,109.2,13.76,-4.91,355.9
"2009-10-29 01:25:00",1368456,13.65,32.94,4.22,1.12,3.587,98.05991,-5.642,-4.371,96.3,0,109.2,13.76,-4.91,354.9
"2009-10-29 01:25:30",1368457,13.78,32.94,3.788,0.834,3.651,98.05962,-5.643,-4.401,96.3,0,109.2,13.76,-4.91,354.9
"2009-10-29 01:26:00",1368458,14.48,32.93,3.013,0.678,3.753,98.05991,-5.642,-4.409,96.3,0,109.2,13.76,-4.91,354.9
"2009-10-29 01:26:30",1368459,14.09,31.21,2.993,1.045,3.582,98.05991,-5.642,-4.404,96.3,0,109.2,13.76,-4.91,353.2
"2009-10-29 01:27:00",1368460,13.24,29.81,4.856,1.025,3.704,98.05991,-5.642,-4.381,96.3,0,109.2,13.76,-4.91,351.8
"2009-10-29 01:27:30",1368461,14.36,31.05,3.432,0.9,3.517,98.05991,-5.642,-4.39,96.3,0,109.2,13.76,-4.91,353.0
"2009-10-29 01:28:00",1368462,14.46,31.38,3.423,0.846,3.653,98.05991,-5.642,-4.386,96.3,0,109.2,13.76,-4.91,353.4
"2009-10-29 01:28:30",1368463,14.39,32.26,3.24,0.928,3.591,98.05962,-5.643,-4.4,96.3,0,109.2,13.76,-4.91,354.3
"2009-10-29 01:29:00",1368464,14.25,32.53,3.181,1.014,3.726,98.05991,-5.642,-4.38,96.3,0,109.2,13.76,-4.91,354.5
"2009-10-29 01:29:30",1368465,13.1,30.58,4.566,1.158,3.502,98.05991,-5.642,-4.403,96.3,0,109.2,13.76,-4.91,352.6
"2009-10-29 01:30:00",1368466,14.35,30.52,3.648,0.786,3.798,98.05991,-5.642,-4.394,96.3,0,109.2,13.76,-4.91,352.5
"2009-10-29 01:30:30",1368467,14.71,31.09,3.714,0.962,3.622,98.05991,-5.642,-4.384,96.3,0,109.2,13.76,-4.91,353.1
"2009-10-29 01:31:00",1368468,13.79,31.56,3.504,0.789,3.552,98.05991,-5.642,-4.383,96.3,0,109.2,13.76,-4.91,353.6
"2009-10-29 01:31:30",1368469,13.37,32.13,3.033,0.888,3.493,98.05991,-5.642,-4.392,96.3,0,109.2,13.76,-4.91,354.1
"2009-10-29 01:32:00",1368470,14.18,32.25,2.988,0.973,3.586,98.06019,-5.641,-4.393,96.3,0,109.2,13.76,-4.91,354.2
"2009-10-29 01:32:30",1368471,13.31,31.65,3.013,0.956,3.529,98.06019,-5.641,-4.382,96.3,0,109.2,13.76,-4.91,353.6
"2009-10-29 01:33:00",1368472,13.7,32.21,3.601,1.02,3.49,98.06075,-5.64,-4.363,96.3,0,109.2,13.76,-4.91,354.2
"2009-10-29 01:33:30",1368473,14.09,31.94,3.729,0.766,3.486,98.06189,-5.637,-4.373,96.3,0,109.2,13.76,-4.90,353.9
"2009-10-29 01:34:00",1368474,14.41,32.42,3.482,0.85,3.715,98.06274,-5.635,-4.381,96.3,0,109.2,13.76,-4.90,354.4
"2009-10-29 01:34:30",1368475,13.8,32.04,3.664,0.937,3.594,98.06302,-5.634,-4.367,96.3,0,109.2,13.76,-4.90,354.0
"2009-10-29 01:35:00",1368476,13.86,31.7,4.881,1.029,3.486,98.06614,-5.626,-4.361,96.3,0,109.2,13.76,-4.89,353.7
"2009-10-29 01:35:30",1368477,14.06,34.22,4.747,1.507,3.521,98.06557,-5.627,-4.358,96.3,0,109.2,13.76,-4.90,356.2
"2009-10-29 01:36:00",1368478,13.85,31.81,3.401,0.789,3.672,98.06728,-5.623,-4.362,96.3,0,109.2,13.76,-4.89,353.8
"2009-10-29 01:36:30",1368479,13.71,32.6,4.378,0.72,3.753,98.06756,-5.622,-4.371,96.3,0,109.2,13.76,-4.89,354.6
"2009-10-29 01:37:00",1368480,13.94,29.97,5.873,1.412,3.549,98.06812,-5.621,-4.356,96.3,0,109.2,13.76,-4.89,352.0
"2009-10-29 01:37:30",1368481,14.03,32.04,4.409,0.824,3.669,98.06728,-5.623,-4.351,96.3,0,109.2,13.76,-4.89,354.0
"2009-10-29 01:38:00",1368482,14.02,30.19,5.086,0.788,3.752,98.0687,-5.619,-4.368,96.3,0,109.2,13.76,-4.89,352.2
"2009-10-29 01:38:30",1368483,12.06,28.13,5.166,1.618,3.604,98.06642,-5.625,-4.366,96.3,0,109.2,13.75,-4.89,350.1
"2009-10-29 01:39:00",1368484,13.55,34.33,3.978,1.329,3.43,98.06784,-5.622,-4.353,96.3,0,109.2,13.76,-4.89,356.3
"2009-10-29 01:39:30",1368485,14.11,34.07,4.83,0.628,3.711,98.0667,-5.625,-4.348,96.2,0,109.2,13.75,-4.89,356.1
"2009-10-29 01:40:00",1368486,14.14,32.99,4.142,0.867,3.638,98.06785,-5.622,-4.353,96.3,0,109.2,13.75,-4.89,355.0
"2009-10-29 01:40:30",1368487,13.35,33.17,5.807,1.488,3.64,98.06728,-5.623,-4.347,96.3,0,109.2,13.75,-4.89,355.2
"2009-10-29 01:41:00",1368488,12.03,32.04,3.184,1.138,3.426,98.06699,-5.624,-4.357,96.3,0,109.2,13.75,-4.89,354.0
"2009-10-29 01:41:30",1368489,12.51,29.53,4.499,1.295,3.485,98.06784,-5.622,-4.373,96.2,0,109.2,13.75,-4.89,351.5
"2009-10-29 01:42:00",1368490,14.58,33.36,4.694,1.052,3.75,98.06841,-5.62,-4.369,96.2,0,109.2,13.75,-4.89,355.4
"2009-10-29 01:42:30",1368491,13.33,34.44,4.326,0.904,3.543,98.06785,-5.622,-4.364,96.3,0,109.2,13.75,-4.89,356.4
"2009-10-29 01:43:00",1368492,13.38,33.55,5.446,1.339,3.506,98.0687,-5.619,-4.357,96.3,0,109.2,13.75,-4.89,355.5
"2009-10-29 01:43:30",1368493,13.22,31.72,4.053,0.853,3.362,98.06643,-5.625,-4.344,96.3,0,109.2,13.76,-4.89,353.7
"2009-10-29 01:44:00",1368494,14.08,32.88,4.339,1.139,3.509,98.06784,-5.622,-4.366,96.3,0,109.2,13.76,-4.89,354.9
"2009-10-29 01:44:30",1368495,14.15,32.29,4.616,0.75,3.616,98.06699,-5.624,-4.358,96.3,0,109.2,13.76,-4.89,354.3
"2009-10-29 01:45:00",1368496,13.9,33.5,4.368,1.211,3.395,98.06614,-5.626,-4.353,96.3,0,109.2,13.76,-4.89,355.5
"2009-10-29 01:45:30",1368497,14.34,34.69,3.94,1.045,3.447,98.067,-5.624,-4.351,96.3,0,109.2,13.76,-4.89,356.7